[[{"header":{"parameterUnit":"m.s-1","parameterCategory":1,"la1":30.2991,"la2":30.254,"lo1":-89.0895,"lo2":-89.0444,"dy":0.0017,"dx":0.0017,"nx":28,"ny":28,"refTime":"2024-04-01T03:00:00:Z","depth":0,"parameterNumber":2,"parameterNumberName":"U-component_of_WINDS"},"data":[0,0,0,0,0,0,0,0,0,0,0,0,0,0,0,0,0,0,0,0,0,0,0,0,0,0,0,0,0,0,0,0,0,0,0,0,0,0,0,0,0,0,0,0,0,0,0,0,0,0,0,0,0,0,0,0,0,0,-3.0383,-3.0384,0,-3.0462,-3.0463,-3.0464,-3.0459,-3.0458,-3.0457,-3.0456,-3.0532,-3.0535,-3.0539,0,0,0,0,0,0,0,0,0,0,0,0,0,-3.0224,-3.0227,-3.0383,-3.0384,-3.0385,-3.0462,-3.0463,-3.0464,-3.0459,-3.0458,-3.0456,-3.0455,-3.0531,-3.0535,-3.0539,0,0,0,0,0,0,0,0,0,0,0,0,0,-3.0297,-3.0228,-3.0383,-3.0392,-3.0394,-3.0462,-3.0463,-3.0465,-3.0459,-3.0458,-3.0456,-3.0454,-3.053,-3.0535,-3.0539,-3.0603,0,0,-3.0554,-3.0556,0,0,0,0,0,0,0,0,-3.0293,-3.0303,-3.039,-3.0392,-3.0393,-3.0449,-3.0435,-3.0511,-3.046,-3.0434,-3.0455,-3.0453,-3.0506,-3.0512,-3.0531,-3.0606,-3.061,-3.0554,-3.0557,-3.0559,-3.056,0,0,0,0,0,0,0,-3.0288,-3.03,-3.0414,-3.0391,-3.0393,-3.0391,-3.0399,-3.045,-3.0479,-3.0436,-3.0436,-3.0446,-3.0506,-3.0526,-3.0533,-3.0611,-3.0554,-3.0558,-3.0561,-3.0563,-3.0741,-3.0743,0,0,0,0,0,0,-3.0282,-3.0295,-3.0412,-3.0417,-3.0338,-3.0395,-3.0405,-3.0433,-3.0478,-3.0483,-3.0447,-3.0445,-3.0519,-3.0527,-3.0535,-3.0611,-3.0559,-3.0563,-3.0566,-3.0739,-3.0741,-3.0743,0,0,0,0,0,0,-3.0278,-3.0292,-3.0409,-3.0356,-3.0371,-3.04,-3.0432,-3.0435,-3.0455,-3.0486,-3.0491,-3.0462,-3.0518,-3.0529,-3.0586,-3.0614,-3.0565,-3.057,-3.0737,-3.074,-3.0742,-3.0764,0,0,0,0,0,0,-3.0274,-3.0291,-3.0316,-3.0357,-3.0374,-3.0459,-3.0433,-3.0438,-3.0464,-3.0462,-3.0502,-3.0507,-3.0518,-3.0579,-3.0591,-3.0619,-3.0573,-3.0734,-3.0738,-3.0741,-3.0761,-3.0767,-3.0772,0,0,0,0,0,-3.0268,-3.0318,-3.0317,-3.0331,-3.0406,-3.0461,-3.047,-3.0483,-3.0466,-3.0491,-3.0511,-3.0505,-3.0609,-3.0585,-3.0598,-3.0628,-3.0732,-3.0737,-3.0741,-3.0758,-3.0766,-3.0772,0,0,0,0,0,0,-3.0278,-3.0324,-3.0323,-3.0389,-3.0421,-3.046,-3.0491,-3.0491,-3.0528,-3.0524,-3.0537,-3.0546,-3.0604,-3.0622,-3.0594,-3.0691,-3.0668,-3.0676,-3.0677,-3.0685,-3.069,-3.0683,-3.0577,0,0,0,0,0,-3.0289,-3.0331,-3.0368,-3.0422,-3.0438,-3.0462,-3.0487,-3.0494,-3.0527,-3.054,-3.0565,-3.0596,-3.0636,-3.0662,-3.07,-3.0764,-3.0772,-3.0792,-3.0797,-3.0802,-3.0807,-3.0841,-3.0849,-3.0757,-3.0757,-3.0757,0,0,-3.031,-3.034,-3.0365,-3.0425,-3.0451,-3.0492,-3.0474,-3.0519,-3.0549,-3.0547,-3.0602,-3.0621,-3.0658,-3.0718,-3.0746,-3.0735,-3.0835,-3.0808,-3.0811,-3.0814,-3.0846,-3.0855,-3.0862,-3.076,-3.076,-3.0759,0,0,-3.0368,-3.0396,-3.0444,-3.0471,-3.0511,-3.0526,-3.0538,-3.0577,-3.059,-3.0646,-3.0645,-3.0681,-3.075,-3.0775,-3.0797,-3.0867,-3.0862,-3.0879,-3.0909,-3.0941,-3.0948,-3.0955,-3.0977,-3.0986,-3.0884,-3.0885,-3.0885,0,-3.0389,-3.0453,-3.0468,-3.0513,-3.0539,-3.0541,-3.0588,-3.0613,-3.0663,-3.0679,-3.0667,-3.0753,-3.0778,-3.0843,-3.086,-3.0879,-3.0891,-3.0873,-3.0946,-3.0953,-3.0959,-3.0981,-3.0989,-3.0886,-3.0886,-3.0886,-3.0886,0,-3.0475,-3.0519,-3.0552,-3.0602,-3.0631,-3.0677,-3.0698,-3.0726,-3.0731,-3.0748,-3.0804,-3.0834,-3.0878,-3.0895,-3.09,-3.0961,-3.0953,-3.0944,-3.092,-3.0969,-3.099,-3.0998,-3.0888,-3.0888,-3.0887,-3.0887,0,0,-3.054,-3.0598,-3.061,-3.0632,-3.0677,-3.0711,-3.0757,-3.0801,-3.0824,-3.0859,-3.0896,-3.0954,-3.0946,-3.0971,-3.0979,-3.1008,-3.1058,-3.0995,-3.0996,-3.1004,-3.1126,-3.113,-3.114,-3.1057,-3.1059,-3.106,-3.1122,0,-3.0602,-3.0684,-3.0699,-3.077,-3.081,-3.0813,-3.0853,-3.0884,-3.0901,-3.0937,-3.0955,-3.0995,-3.0983,-3.0997,-3.1027,-3.1046,-3.1083,-3.1042,-3.109,-3.1091,-3.1078,-3.1151,-3.1156,-3.1213,-3.113,-3.1131,-3.1133,0,-3.0684,-3.0722,-3.0797,-3.0836,-3.0854,-3.0889,-3.093,-3.0965,-3.1,-3.1011,-3.1039,-3.1044,-3.109,-3.1067,-3.1129,-3.1101,-3.1122,-3.1135,-3.1137,-3.114,-3.1113,-3.1153,-3.1231,-3.1239,-3.1146,-3.1145,-3.1144,0,-3.0722,-3.0792,-3.0845,-3.0865,-3.0912,-3.0936,-3.0957,-3.0991,-3.1016,-3.1052,-3.1068,-3.1109,-3.1131,-3.1161,-3.1176,-3.1159,-3.1237,-3.1216,-3.1245,-3.1245,-3.1259,-3.1258,-3.1339,-3.1277,-3.1277,-3.1277,-3.1277,0,-3.0787,-3.0833,-3.0863,-3.0895,-3.0946,-3.0963,-3.1012,-3.1032,-3.1062,-3.1097,-3.1103,-3.1136,-3.1155,-3.1191,-3.1203,-3.1252,-3.1262,-3.127,-3.1272,-3.1268,-3.1267,-3.128,-3.1275,-3.1279,-3.1279,-3.1278,-3.1278,0,-3.0836,-3.0859,-3.0917,-3.0958,-3.0969,-3.1004,-3.1038,-3.1069,-3.1087,-3.1132,-3.1143,-3.1171,-3.1213,-3.1232,-3.1283,-3.1292,-3.1347,-3.1347,-3.1335,-3.1335,-3.1362,-3.1359,-3.1453,-3.1466,-3.1397,-3.1398,-3.1399,0,-3.0876,-3.0911,-3.0955,-3.098,-3.1002,-3.1042,-3.1068,-3.1086,-3.1113,-3.1156,-3.1181,-3.1224,-3.1258,-3.1325,-3.1349,-3.1388,-3.1388,-3.1419,-3.1394,-3.1388,-3.1386,-3.1382,-3.1385,-3.1422,-3.1423,-3.1423,-3.1424,0,-3.0942,-3.0951,-3.099,-3.1032,-3.1063,-3.1097,-3.113,-3.115,-3.1173,-3.1203,-3.1246,-3.1274,-3.1327,-3.1368,-3.1409,-3.1429,-3.1429,-3.1432,-3.144,-3.1435,-3.1425,-3.1429,-3.1344,-3.1429,-3.1428,-3.1428,-3.1428,-3.1428,-3.0986,-3.1016,-3.1053,-3.1095,-3.1122,-3.1153,-3.1184,-3.1206,-3.1243,-3.1288,-3.1297,-3.1343,-3.1376,-3.1432,-3.1453,-3.1488,-3.1481,-3.1493,-3.1496,-3.1498,-3.1499,-3.1422,-3.1496,-3.1496,-3.1496,-3.1496,-3.1496,0,-3.105,-3.1074,-3.1113,-3.1159,-3.1192,-3.1192,-3.1229,-3.1256,-3.1296,-3.1328,-3.1363,-3.1412,-3.1453,-3.148,-3.1521,-3.1543,-3.1544,-3.1553,-3.155,-3.1554,-3.1504,-3.1492,-3.1551,-3.1551,-3.1551,-3.1551,-3.1551,-3.1551,-3.1088,-3.1139,-3.1153,-3.1217,-3.1241,-3.1286,-3.1307,-3.1335,-3.136,-3.1416,-3.145,-3.1468,-3.1498,-3.154,-3.1577,-3.1584,-3.1597,-3.1606,-3.1612,-3.1564,-3.1558,-3.1552,-3.1541,-3.1609,-3.1609,-3.1658,-3.1659,-3.1659]},{"header":{"parameterUnit":"m.s-1","parameterCategory":1,"la1":30.2991,"la2":30.254,"lo1":-89.0895,"lo2":-89.0444,"dy":0.0017,"dx":0.0017,"nx":28,"ny":28,"refTime":"2024-04-01T03:00:00:Z","depth":0,"parameterNumber":3,"parameterNumberName":"V-component_of_WINDS"},"data":[0,0,0,0,0,0,0,0,0,0,0,0,0,0,0,0,0,0,0,0,0,0,0,0,0,0,0,0,0,0,0,0,0,0,0,0,0,0,0,0,0,0,0,0,0,0,0,0,0,0,0,0,0,0,0,0,0,0,4.1462,4.1462,0,4.1496,4.1496,4.1497,4.1507,4.1507,4.1507,4.1507,4.1538,4.1539,4.154,0,0,0,0,0,0,0,0,0,0,0,0,0,4.1405,4.1406,4.1462,4.1462,4.1463,4.1496,4.1496,4.1497,4.1507,4.1507,4.1507,4.1507,4.1538,4.1539,4.154,0,0,0,0,0,0,0,0,0,0,0,0,0,4.1433,4.1406,4.1462,4.1472,4.1473,4.1496,4.1496,4.1497,4.1507,4.1507,4.1507,4.1506,4.1537,4.1539,4.154,4.1554,0,0,4.1545,4.1545,0,0,0,0,0,0,0,0,4.1432,4.1435,4.147,4.1471,4.1473,4.1497,4.1488,4.1516,4.1507,4.1494,4.1507,4.1506,4.1524,4.1527,4.1534,4.1555,4.1557,4.1545,4.1546,4.1546,4.1547,0,0,0,0,0,0,0,4.143,4.1434,4.1475,4.1471,4.1472,4.1475,4.1478,4.1493,4.151,4.1495,4.1496,4.15,4.1525,4.1532,4.1534,4.1557,4.1545,4.1546,4.1547,4.1548,4.1595,4.1596,0,0,0,0,0,0,4.1426,4.1432,4.1474,4.1476,4.1451,4.1476,4.148,4.1489,4.151,4.1513,4.15,4.1501,4.153,4.1533,4.1536,4.1556,4.1546,4.1548,4.1549,4.1595,4.1595,4.1596,0,0,0,0,0,0,4.1425,4.143,4.1473,4.1455,4.146,4.1477,4.1488,4.149,4.1497,4.1514,4.1517,4.1505,4.153,4.1534,4.155,4.1557,4.1548,4.155,4.1595,4.1595,4.1596,4.1594,0,0,0,0,0,0,4.1423,4.1429,4.1435,4.1455,4.1461,4.1487,4.1488,4.1491,4.15,4.1501,4.1519,4.1521,4.153,4.1548,4.1552,4.1559,4.1551,4.1594,4.1595,4.1596,4.1593,4.1594,4.1595,0,0,0,0,0,4.1421,4.1431,4.1435,4.144,4.1468,4.1487,4.1491,4.1502,4.1501,4.1507,4.1518,4.1521,4.1555,4.155,4.1554,4.1561,4.1594,4.1595,4.1595,4.1593,4.1594,4.1595,0,0,0,0,0,0,4.141,4.1434,4.1438,4.1455,4.147,4.1489,4.1497,4.1502,4.1516,4.1516,4.1527,4.1531,4.1548,4.1556,4.1549,4.1577,4.1575,4.1576,4.1571,4.1572,4.1573,4.1571,4.1552,0,0,0,0,0,4.141,4.1424,4.1444,4.1457,4.1464,4.1479,4.1488,4.1495,4.151,4.1515,4.1527,4.1541,4.1555,4.1564,4.1578,4.1595,4.16,4.1602,4.1603,4.1603,4.1605,4.1617,4.1619,4.1599,4.1599,4.1599,0,0,4.1409,4.1424,4.1431,4.1455,4.1467,4.1482,4.1484,4.1498,4.151,4.1517,4.1535,4.1544,4.156,4.1578,4.1586,4.1585,4.1612,4.1604,4.1605,4.1606,4.1618,4.162,4.1622,4.1599,4.1599,4.1599,0,0,4.1415,4.1427,4.1441,4.1453,4.1472,4.1483,4.1486,4.1506,4.1513,4.1531,4.1538,4.1551,4.1575,4.1587,4.1596,4.161,4.1614,4.1614,4.1618,4.163,4.1632,4.1633,4.164,4.1642,4.1616,4.1616,4.1616,0,4.1411,4.1434,4.1447,4.1462,4.1473,4.1483,4.1498,4.1509,4.153,4.1538,4.1537,4.1569,4.158,4.1602,4.1606,4.1612,4.1617,4.1612,4.1631,4.1632,4.1634,4.1641,4.1643,4.1616,4.1616,4.1616,4.1616,0,4.1429,4.1445,4.1454,4.1478,4.1489,4.1504,4.1519,4.153,4.1537,4.1547,4.1567,4.1581,4.1599,4.1605,4.161,4.1629,4.1628,4.1628,4.1626,4.1636,4.1642,4.1645,4.1616,4.1616,4.1616,4.1616,0,0,4.1427,4.146,4.1463,4.1476,4.1499,4.1511,4.1527,4.1547,4.1556,4.1571,4.1586,4.1607,4.1609,4.1619,4.1627,4.1637,4.165,4.1637,4.1637,4.164,4.1673,4.1674,4.1677,4.1653,4.1654,4.1654,4.1673,0,4.1438,4.1468,4.1481,4.1505,4.1522,4.1533,4.1547,4.1563,4.1574,4.1589,4.16,4.1616,4.1616,4.1623,4.1634,4.1646,4.1657,4.1645,4.1667,4.1668,4.1664,4.168,4.1679,4.1696,4.1675,4.1676,4.1676,0,4.1453,4.1471,4.1498,4.1522,4.1529,4.1542,4.1563,4.1577,4.1595,4.1603,4.1616,4.1624,4.1642,4.1639,4.1664,4.1655,4.1665,4.1673,4.1674,4.1677,4.1673,4.1685,4.1702,4.1705,4.168,4.168,4.1679,0,4.1452,4.1482,4.1503,4.1513,4.1541,4.155,4.1562,4.1581,4.1593,4.1611,4.1619,4.1637,4.1648,4.1663,4.1676,4.1671,4.17,4.1697,4.1708,4.1708,4.1714,4.1713,4.1734,4.1718,4.1718,4.1718,4.1718,0,4.1462,4.1478,4.1504,4.1516,4.1535,4.1551,4.1569,4.1582,4.1599,4.1615,4.1624,4.1639,4.1655,4.1671,4.1681,4.1702,4.1706,4.1713,4.1716,4.1713,4.1712,4.172,4.172,4.1718,4.1718,4.1718,4.1718,0,4.1463,4.1481,4.1505,4.1531,4.1538,4.1551,4.1573,4.1586,4.1599,4.1619,4.1624,4.1644,4.1664,4.1679,4.1704,4.1711,4.1734,4.1735,4.1728,4.173,4.174,4.1739,4.1767,4.1773,4.1752,4.1752,4.1752,0,4.147,4.1483,4.1512,4.1524,4.1537,4.1556,4.1569,4.1585,4.1599,4.1623,4.1634,4.1655,4.1673,4.1705,4.1721,4.1741,4.1745,4.1753,4.1748,4.1745,4.1747,4.1747,4.1749,4.1754,4.1754,4.1754,4.1754,0,4.1479,4.1488,4.1508,4.1531,4.1548,4.1566,4.1585,4.1594,4.1614,4.1629,4.1651,4.1665,4.1693,4.1715,4.1737,4.1749,4.1756,4.1756,4.176,4.1758,4.1754,4.1758,4.1732,4.1755,4.1755,4.1755,4.1755,4.1755,4.1484,4.1498,4.1522,4.1544,4.156,4.1579,4.1593,4.1609,4.1629,4.1654,4.1662,4.1686,4.1706,4.1738,4.175,4.1769,4.1768,4.1773,4.1775,4.1776,4.1777,4.175,4.1772,4.1772,4.1772,4.1772,4.1772,0,4.1496,4.1513,4.1533,4.1561,4.1579,4.1586,4.1608,4.1622,4.1643,4.1663,4.1682,4.1708,4.173,4.1749,4.1772,4.1784,4.1787,4.1789,4.1789,4.1792,4.1775,4.1771,4.1786,4.1786,4.1786,4.1786,4.1786,4.1786,4.1504,4.1529,4.1541,4.1574,4.1591,4.1615,4.1628,4.1645,4.1661,4.1692,4.1711,4.1724,4.1744,4.1769,4.179,4.1795,4.1803,4.1805,4.181,4.1794,4.1793,4.1791,4.1787,4.1806,4.1806,4.1826,4.1826,4.1827]}]]